Terminal Aerodrome Forecast
Issued by NWS

Home | Current Version | Previous Version | Text Only | Print | Product List | Glossary Off
Versions: 1 2 3 4 5 6 7 8 9 10 11 12 13 14 15 16 17 18 19 20 21 22 23 24 25 26 27 28 29 30 31 32 33 34 35 36 37 38 39 40 41 42 43 44 45 46 47 48 49 50

000
FTUS43 KLOT 261500 AAB
TAFGYY
TAF AMD
KGYY 261552Z 2616/2712 11008KT P6SM OVC015
     FM262100 08006KT P6SM OVC018
     FM270000 02006KT P6SM OVC020
     FM270800 31008KT P6SM VCSH BKN020 OVC040=

USA.gov is the U.S. government's official web portal to all federal, state and local government web resources and services.